EW7806 Weather Reports


Display with metric or nautical units.
time (UTC)temp
F
wind
direction
speed
MPH
gust
MPH
rain 1hr
in
rain 24hr
in
rain mn
in
humidity
%
barometer
mb
20260502214149 55 52 0.0 0.0 0.00 0.01 0.01 89 1013.2
20260502213639 54 52 0.0 0.0 0.00 0.01 0.01 89 1013.2
20260502212611 54 93 0.0 0.0 0.00 0.01 0.01 88 1013.2
20260502212125 55 94 0.0 0.0 0.00 0.01 0.01 88 1013.5
20260502211607 55 94 0.0 0.0 0.00 0.01 0.01 88 1013.5
20260502211107 55 93 0.0 0.0 0.00 0.01 0.01 88 1013.6
20260502210117 55 93 0.0 0.0 0.00 0.01 0.01 88 1013.8
20260502205605 55 93 0.0 0.0 0.00 0.01 0.01 88 1013.8
20260502205105 55 94 0.0 0.0 0.00 0.01 0.01 88 1013.9
20260502204043 55 94 0.0 0.0 0.00 0.01 0.01 88 1014.0
20260502203534 55 94 0.0 0.0 0.00 0.01 0.01 88 1014.0
20260502203031 55 94 0.0 0.0 0.00 0.01 0.01 88 1014.0
20260502202521 56 95 0.0 0.0 0.00 0.01 0.01 88 1014.1
20260502202020 56 96 0.0 0.0 0.00 0.01 0.01 87 1014.2
20260502201527 56 96 0.0 0.0 0.00 0.01 0.01 87 1014.2
20260502201029 56 94 0.0 0.0 0.00 0.01 0.01 87 1014.3
20260502200522 56 94 0.0 0.0 0.00 0.01 0.01 87 1014.4
20260502195525 56 94 0.0 0.0 0.00 0.01 0.01 87 1014.4
20260502195028 56 94 0.0 0.0 0.00 0.01 0.01 86 1014.4
20260502194532 56 94 0.0 0.0 0.00 0.01 0.01 86 1014.4
20260502194033 57 94 0.0 0.0 0.00 0.01 0.01 86 1014.4
20260502193517 57 92 0.0 0.0 0.00 0.01 0.01 85 1014.4
20260502193024 57 93 0.0 0.0 0.00 0.01 0.01 85 1014.4
20260502192524 57 93 0.0 0.0 0.00 0.01 0.01 85 1014.4
20260502192033 58 82 0.0 0.0 0.00 0.01 0.01 85 1014.6
20260502191522 58 83 0.0 0.0 0.00 0.01 0.01 85 1014.6
20260502191030 58 83 0.0 0.0 0.00 0.01 0.01 84 1014.6
20260502190028 58 83 0.0 0.0 0.00 0.01 0.01 84 1014.6
20260502185023 59 90 0.0 0.0 0.00 0.01 0.01 83 1014.6
20260502184526 59 90 0.0 0.0 0.00 0.01 0.01 83 1014.5
20260502184008 59 90 0.0 0.0 0.00 0.01 0.01 83 1014.5
20260502183520 59 134 0.0 1.0 0.00 0.01 0.01 82 1014.5
20260502183024 60 134 0.0 1.0 0.00 0.01 0.01 82 1014.5
20260502182527 60 108 0.0 0.0 0.00 0.01 0.01 82 1014.6
20260502182012 60 129 0.0 1.0 0.00 0.01 0.01 81 1014.6
20260502181510 60 129 0.0 1.0 0.00 0.01 0.01 81 1014.5
20260502180514 61 131 0.0 1.0 0.00 0.01 0.01 80 1014.7
20260502170500 63 240 1.0 2.0 0.00 0.01 0.01 75 1015.2
20260502163906 64 267 0.0 3.0 0.00 0.01 0.01 71 1015.5
20260502163409 64 152 0.0 3.0 0.00 0.01 0.01 66 1015.6
20260502162838 64 177 0.0 8.0 0.00 0.01 0.01 69 1015.5
20260502161836 64 262 1.0 1.0 0.00 0.01 0.01 66 1015.7
20260502161313 64 139 1.0 8.0 0.00 0.01 0.01 68 1015.8
20260502160808 64 245 1.0 8.0 0.00 0.01 0.01 65 1015.7
20260502151807 64 88 0.0 6.0 0.00 0.01 0.01 60 1016.1
20260502151304 64 207 0.0 3.0 0.00 0.01 0.01 62 1016.1
20260502150806 64 159 1.0 6.0 0.00 0.01 0.01 63 1016.1
20260502130635 64 269 2.0 7.0 0.00 0.01 0.01 70 1016.9
20260502130133 64 164 2.0 7.0 0.00 0.01 0.01 69 1016.9
20260502123604 64 219 3.0 7.0 0.00 0.01 0.01 77 1017.1
20260502123103 64 191 3.0 7.0 0.00 0.01 0.01 77 1017.2
20260502122535 64 174 3.0 9.0 0.00 0.01 0.01 77 1017.3
20260502122038 64 356 3.0 9.0 0.00 0.01 0.01 77 1017.3
20260502121535 64 126 2.0 11.0 0.00 0.01 0.01 76 1017.3
20260502120531 65 34 2.0 11.0 0.00 0.01 0.01 75 1017.4
20260502115522 65 190 2.0 12.0 0.00 0.01 0.01 75 1017.3
20260502115024 65 46 1.0 6.0 0.00 0.01 0.01 78 1017.4
20260502113512 65 158 1.0 8.0 0.00 0.01 0.01 76 1017.3
20260502113023 65 102 1.0 8.0 0.00 0.01 0.01 76 1017.4
20260502112519 65 186 1.0 6.0 0.00 0.01 0.01 78 1017.4
20260502112026 65 194 2.0 9.0 0.00 0.01 0.01 77 1017.4
20260502111525 65 134 2.0 9.0 0.00 0.01 0.01 77 1017.5
20260502111034 64 43 1.0 7.0 0.00 0.01 0.01 80 1017.4
20260502110527 65 25 2.0 7.0 0.00 0.01 0.01 79 1017.6
20260502110025 65 145 2.0 7.0 0.00 0.01 0.01 79 1017.6
20260502105510 65 237 2.0 7.0 0.00 0.01 0.01 81 1017.6
20260502105018 64 121 2.0 6.0 0.00 0.01 0.01 82 1017.6
20260502104021 64 180 1.0 7.0 0.00 0.01 0.01 82 1017.6
20260502103517 64 205 1.0 7.0 0.00 0.01 0.01 83 1017.6
20260502103026 64 150 1.0 6.0 0.00 0.01 0.01 83 1017.7
20260502102510 64 203 2.0 5.0 0.00 0.01 0.01 83 1017.6
20260502102023 64 176 2.0 10.0 0.00 0.01 0.01 82 1017.6
20260502101520 64 160 2.0 10.0 0.00 0.01 0.01 82 1017.6
20260502101032 64 182 2.0 8.0 0.00 0.01 0.01 83 1017.6
20260502091407 60 38 1.0 8.0 0.00 0.01 0.00 89 1017.6
20260502090908 60 34 1.0 5.0 0.00 0.01 0.00 89 1017.6
20260502090406 59 127 0.0 3.0 0.01 0.01 0.01 89 1017.5
20260502071208 60 40 0.0 3.0 0.00 0.00 0.00 81 1017.7
20260502070722 60 75 0.0 3.0 0.00 0.00 0.00 81 1017.6
20260502070208 60 46 0.0 2.0 0.00 0.00 0.00 80 1017.6
20260502065642 60 46 0.0 2.0 0.00 0.00 0.00 80 1017.6
20260502065134 59 65 0.0 2.0 0.00 0.00 0.00 80 1017.6
20260502064634 59 104 0.0 2.0 0.00 0.00 0.00 79 1017.6
20260502064105 59 82 0.0 4.0 0.00 0.00 0.00 79 1017.6
20260502063610 59 32 0.0 1.0 0.00 0.00 0.00 78 1017.6
20260502062540 59 63 0.0 1.0 0.00 0.00 0.00 78 1017.6
20260502062037 58 135 0.0 1.0 0.00 0.00 0.00 78 1017.6
20260502061535 58 143 0.0 1.0 0.00 0.00 0.00 78 1017.6
20260502061025 58 146 0.0 1.0 0.00 0.00 0.00 77 1017.6
20260502060521 57 91 0.0 1.0 0.00 0.00 0.00 75 1017.7
20260502055519 57 177 0.0 0.0 0.00 0.00 0.00 72 1017.7
20260502055022 56 67 0.0 0.0 0.00 0.00 0.00 71 1017.4
20260502054025 56 68 0.0 0.0 0.00 0.00 0.00 71 1017.4
20260502053523 55 84 0.0 0.0 0.00 0.00 0.00 71 1017.4
20260502052524 55 84 0.0 0.0 0.00 0.00 0.00 71 1017.4
20260502052023 54 68 0.0 0.0 0.00 0.00 0.00 71 1017.4
20260502051525 54 68 0.0 0.0 0.00 0.00 0.00 71 1017.4
20260502050523 53 83 0.0 0.0 0.00 0.00 0.00 70 1017.5
20260502045950 53 48 0.0 0.0 0.00 0.00 0.00 70 1017.4
20260502045439 53 84 0.0 0.0 0.00 0.00 0.00 71 1017.5
20260502044937 53 79 0.0 0.0 0.00 0.00 0.00 72 1017.5
20260502044410 53 79 0.0 0.0 0.00 0.00 0.00 72 1017.5
20260502043907 52 127 0.0 0.0 0.00 0.00 0.00 72 1017.4
20260502043409 53 75 0.0 0.0 0.00 0.00 0.00 74 1017.4
20260502042406 53 74 0.0 0.0 0.00 0.00 0.00 73 1017.5
20260502040847 53 74 0.0 0.0 0.00 0.00 0.00 70 1017.5
20260502040336 53 75 0.0 0.0 0.00 0.00 0.00 70 1017.6
20260502035836 53 75 0.0 0.0 0.00 0.00 0.00 69 1017.6
20260502035338 53 75 0.0 0.0 0.00 0.00 0.00 69 1017.6
20260502034335 53 52 0.0 1.0 0.00 0.00 0.00 68 1017.7
20260502032828 54 47 0.0 0.0 0.00 0.00 0.00 68 1017.8
20260502032326 54 70 0.0 0.0 0.00 0.00 0.00 69 1017.9
20260502031808 53 44 0.0 0.0 0.00 0.00 0.00 68 1017.8
20260502031307 53 44 0.0 0.0 0.00 0.00 0.00 69 1017.7
20260502030307 53 44 0.0 0.0 0.00 0.00 0.00 70 1017.8
20260502025737 53 44 0.0 0.0 0.00 0.00 0.00 70 1017.8
20260502025235 53 44 0.0 0.0 0.00 0.00 0.00 70 1018.0
20260502024733 53 44 0.0 0.0 0.00 0.00 0.00 72 1018.0
20260502024207 53 44 0.0 0.0 0.00 0.00 0.00 71 1018.0
20260502023707 53 44 0.0 0.0 0.00 0.00 0.00 71 1018.0
20260502023205 53 44 0.0 0.0 0.00 0.00 0.00 70 1018.1
20260502022655 53 44 0.0 0.0 0.00 0.00 0.00 71 1018.1
20260502021635 53 44 0.0 0.0 0.00 0.00 0.00 71 1018.1
20260502021133 53 44 0.0 0.0 0.00 0.00 0.00 71 1018.1
20260502020628 53 44 0.0 0.0 0.00 0.00 0.00 72 1018.2
20260502020119 53 44 0.0 0.0 0.00 0.00 0.00 71 1018.3
20260502014607 54 44 0.0 0.0 0.00 0.00 0.00 72 1018.3
20260502014040 54 44 0.0 0.0 0.00 0.00 0.00 70 1018.3
20260502013534 55 44 0.0 0.0 0.00 0.00 0.00 68 1018.3
20260502013034 55 44 0.0 0.0 0.00 0.00 0.00 68 1018.4
20260502012537 55 44 0.0 0.0 0.00 0.00 0.00 66 1018.5
20260502012026 55 33 0.0 0.0 0.00 0.00 0.00 65 1018.5
20260502011526 55 32 0.0 0.0 0.00 0.00 0.00 63 1018.6
20260502011028 56 32 0.0 1.0 0.00 0.00 0.00 63 1018.6
20260502010519 56 32 0.0 1.0 0.00 0.00 0.00 63 1018.7
20260502005951 56 32 0.0 1.0 0.00 0.00 0.00 63 1018.7
20260502005434 56 32 0.0 1.0 0.00 0.00 0.00 61 1018.8
20260502004937 56 32 0.0 0.0 0.00 0.00 0.00 61 1018.9
20260502004433 56 32 0.0 0.0 0.00 0.00 0.00 61 1018.9
20260502003435 57 32 0.0 0.0 0.00 0.00 0.00 59 1019.0
20260502002935 57 32 0.0 0.0 0.00 0.00 0.00 59 1019.0
20260502002431 57 32 0.0 3.0 0.00 0.00 0.00 61 1019.0
20260502001931 58 32 0.0 1.0 0.00 0.00 0.00 57 1019.0
20260502001410 58 32 0.0 3.0 0.00 0.00 0.00 57 1019.1
20260502000906 58 30 0.0 3.0 0.00 0.00 0.00 57 1019.1
20260502000409 58 41 0.0 0.0 0.00 0.00 0.00 57 1019.2
20260501235903 58 41 0.0 0.0 0.00 0.00 0.00 57 1019.3
20260501235336 57 37 0.0 0.0 0.00 0.00 0.00 58 1019.3
20260501234833 57 44 0.0 0.0 0.00 0.00 0.00 59 1019.4
20260501234333 57 44 0.0 0.0 0.00 0.00 0.00 59 1019.4
20260501233833 57 44 0.0 0.0 0.00 0.00 0.00 59 1019.4
20260501233339 57 37 0.0 0.0 0.00 0.00 0.00 64 1019.4
20260501232813 57 37 0.0 0.0 0.00 0.00 0.00 63 1019.4
20260501232306 57 37 0.0 0.0 0.00 0.00 0.00 62 1019.5
20260501231813 57 36 0.0 0.0 0.00 0.00 0.00 60 1019.6
20260501231233 57 36 0.0 0.0 0.00 0.00 0.00 61 1019.6
20260501230741 56 36 0.0 0.0 0.00 0.00 0.00 63 1019.7
20260501230242 56 49 0.0 0.0 0.00 0.00 0.00 70 1019.7
20260501225736 56 49 0.0 0.0 0.00 0.00 0.00 68 1019.9
20260501225234 56 49 0.0 0.0 0.00 0.00 0.00 70 1019.9
20260501224737 56 49 0.0 0.0 0.00 0.00 0.00 67 1019.9
20260501224233 56 49 0.0 0.0 0.00 0.00 0.00 67 1019.8
20260501223234 56 49 0.0 0.0 0.00 0.00 0.00 68 1020.0
20260501222736 56 49 0.0 0.0 0.00 0.00 0.00 68 1020.0
20260501222229 56 49 0.0 0.0 0.00 0.00 0.00 69 1020.0
20260501221711 56 49 0.0 0.0 0.00 0.00 0.00 71 1020.0
20260501221206 55 49 0.0 0.0 0.00 0.00 0.00 72 1020.0
20260501220709 55 49 0.0 0.0 0.00 0.00 0.00 73 1020.1
20260501220207 56 49 0.0 0.0 0.00 0.00 0.00 73 1020.2
20260501215204 56 49 0.0 0.0 0.00 0.00 0.00 73 1020.2